CW6398 Weather Reports


Display with metric or nautical units.
time (UTC)temp
F
wind
direction
speed
MPH
gust
MPH
rain 1hr
in
rain 24hr
in
rain mn
in
humidity
%
barometer
mb
20190326063705 35 14 0.0 2.0 0.00 0.05 0.00 85 1027.3
20190326063205 35 11 0.0 2.0 0.00 0.05 0.00 85 1027.3
20190326062705 35 15 0.0 2.0 0.00 0.05 0.00 85 1027.3
20190326062205 35 0 0.0 0.0 0.00 0.05 0.00 85 1027.3
20190326061705 35 5 0.0 0.0 0.00 0.05 0.00 85 1027.2
20190326061205 35 13 0.0 0.0 0.00 0.05 0.00 86 1027.2
20190326060705 35 11 0.0 0.0 0.00 0.05 0.00 85 1027.1
20190326060205 34 14 0.0 0.0 0.00 0.05 0.00 85 1027.0
20190326055705 34 14 0.0 0.0 0.00 0.05 0.00 85 1027.0
20190326055205 34 12 0.0 0.0 0.00 0.05 0.00 86 1026.9
20190326054705 34 13 0.0 0.0 0.00 0.05 0.00 86 1026.8
20190326054205 34 11 0.0 0.0 0.00 0.05 0.00 86 1026.8
20190326053704 34 12 0.0 0.0 0.00 0.05 0.00 86 1026.9
20190326053206 34 13 0.0 0.0 0.00 0.05 0.00 86 1026.8
20190326052705 34 14 0.0 0.0 0.00 0.05 0.00 86 1026.8
20190326052205 34 12 0.0 0.0 0.00 0.05 0.00 86 1026.7
20190326051705 34 11 0.0 0.0 0.00 0.05 0.00 86 1026.6
20190326051205 34 11 0.0 0.0 0.00 0.05 0.00 86 1026.6
20190326050705 34 11 0.0 0.0 0.00 0.05 0.00 86 1026.7
20190326050205 34 11 0.0 0.0 0.00 0.05 0.00 86 1026.6
20190326045705 34 13 0.0 0.0 0.00 0.05 0.00 86 1026.6
20190326045205 34 13 0.0 0.0 0.00 0.05 0.00 86 1026.4
20190326044705 34 13 0.0 0.0 0.00 0.05 0.00 86 1026.3
20190326044205 34 12 0.0 0.0 0.00 0.05 0.00 86 1026.3
20190326043705 34 11 0.0 0.0 0.00 0.05 0.00 86 1026.3
20190326043206 34 11 0.0 0.0 0.00 0.05 0.00 86 1026.3
20190326042705 34 11 0.0 0.0 0.00 0.05 0.00 86 1026.3
20190326042205 34 12 0.0 0.0 0.00 0.05 0.00 86 1026.2
20190326041705 34 12 0.0 0.0 0.00 0.05 0.00 86 1026.1
20190326041204 34 13 0.0 0.0 0.00 0.05 0.00 86 1026.0
20190326040705 34 14 0.0 0.0 0.00 0.05 0.00 85 1025.9
20190326040205 34 11 0.0 0.0 0.00 0.05 0.00 85 1025.8
20190326035705 34 12 0.0 0.0 0.00 0.05 0.00 85 1025.8
20190326035205 34 13 0.0 0.0 0.00 0.05 0.00 85 1025.7
20190326034705 34 12 0.0 0.0 0.00 0.05 0.00 85 1025.7
20190326034205 34 13 0.0 0.0 0.00 0.05 0.00 86 1025.7
20190326033705 34 14 0.0 0.0 0.00 0.05 0.00 86 1025.7
20190326033205 34 14 0.0 0.0 0.00 0.05 0.00 86 1025.6
20190326032705 34 13 0.0 0.0 0.00 0.05 0.00 85 1025.6
20190326032205 34 11 0.0 0.0 0.00 0.05 0.00 85 1025.5
20190326031705 34 12 0.0 0.0 0.00 0.05 0.00 85 1025.5
20190326031205 34 12 0.0 0.0 0.00 0.05 0.00 85 1025.6
20190326030705 34 14 0.0 0.0 0.00 0.05 0.00 85 1025.5
20190326030205 33 13 0.0 0.0 0.00 0.05 0.00 86 1025.4
20190326025705 33 11 0.0 0.0 0.00 0.05 0.00 86 1025.1
20190326025205 33 11 0.0 0.0 0.00 0.05 0.00 86 1025.1
20190326024705 33 14 0.0 0.0 0.00 0.05 0.00 85 1025.1
20190326024205 33 12 0.0 0.0 0.00 0.05 0.00 85 1025.1
20190326023705 34 13 0.0 0.0 0.00 0.05 0.00 85 1025.1
20190326023205 34 13 0.0 0.0 0.00 0.05 0.00 85 1025.0
20190326022705 34 15 0.0 0.0 0.00 0.05 0.00 86 1024.9
20190326022205 34 11 0.0 0.0 0.00 0.05 0.00 85 1024.9
20190326021705 34 13 0.0 0.0 0.00 0.05 0.00 85 1024.9
20190326021205 34 11 0.0 0.0 0.00 0.05 0.00 85 1024.9
20190326020705 34 13 0.0 0.0 0.00 0.05 0.00 85 1024.9
20190326020205 34 13 0.0 0.0 0.00 0.05 0.00 85 1024.9
20190326015704 34 13 0.0 0.0 0.00 0.05 0.00 85 1024.8
20190326015205 34 11 0.0 0.0 0.00 0.05 0.00 85 1024.9
20190326014705 34 13 0.0 0.0 0.00 0.05 0.00 85 1024.9
20190326014204 34 12 0.0 0.0 0.00 0.05 0.00 85 1024.9
20190326013705 34 12 0.0 0.0 0.00 0.05 0.00 85 1024.8
20190326013206 34 13 0.0 0.0 0.00 0.05 0.00 85 1024.8
20190326012705 34 12 0.0 0.0 0.00 0.05 0.00 85 1024.7
20190326012205 33 13 0.0 0.0 0.00 0.05 0.00 85 1024.6
20190326011705 33 13 0.0 0.0 0.00 0.05 0.00 85 1024.6
20190326011205 33 12 0.0 1.0 0.00 0.05 0.00 85 1024.7
20190326010705 33 15 0.0 1.0 0.00 0.05 0.00 85 1024.5
20190326010205 33 15 0.0 1.0 0.00 0.05 0.00 85 1024.5
20190326005705 33 13 0.0 1.0 0.00 0.05 0.00 85 1024.3
20190326005205 33 15 0.0 0.0 0.00 0.05 0.00 85 1024.2
20190326004705 33 12 0.0 0.0 0.00 0.05 0.00 85 1024.2
20190326004205 34 13 0.0 0.0 0.00 0.05 0.00 85 1024.2
20190326003704 34 13 0.0 0.0 0.00 0.05 0.00 85 1024.1
20190326003205 34 11 0.0 0.0 0.00 0.05 0.00 85 1024.0
20190326002705 34 12 0.0 0.0 0.00 0.05 0.00 85 1023.9
20190326002205 35 11 0.0 0.0 0.00 0.05 0.00 85 1023.9
20190326001705 35 11 0.0 0.0 0.00 0.05 0.00 85 1023.9
20190326001205 35 12 0.0 0.0 0.00 0.05 0.00 85 1023.9
20190326000704 35 12 0.0 0.0 0.00 0.05 0.00 85 1024.0
20190326000219 35 12 0.0 0.0 0.00 0.05 0.00 85 1024.1
20190325235705 35 12 0.0 0.0 0.00 0.05 0.00 85 1024.1
20190325235205 35 11 0.0 0.0 0.00 0.05 0.00 85 1024.0
20190325234706 35 11 0.0 0.0 0.00 0.05 0.00 85 1024.1
20190325234205 35 11 0.0 0.0 0.00 0.05 0.00 85 1024.1
20190325233706 35 10 0.0 0.0 0.00 0.05 0.00 85 1024.0
20190325233206 35 11 0.0 0.0 0.00 0.05 0.00 85 1024.0
20190325232705 35 13 0.0 0.0 0.00 0.05 0.00 85 1023.9
20190325232204 35 15 0.0 3.0 0.00 0.05 0.00 85 1023.8
20190325231704 35 13 0.0 3.0 0.00 0.05 0.00 85 1023.7
20190325231205 34 11 0.0 3.0 0.00 0.05 0.00 85 1023.8
20190325230205 34 10 0.0 0.0 0.00 0.05 0.05 85 1023.8
20190325225705 34 13 0.0 0.0 0.00 0.05 0.05 85 1023.7
20190325225205 34 12 0.0 0.0 0.00 0.05 0.05 85 1023.7
20190325224704 34 11 0.0 0.0 0.00 0.05 0.05 85 1023.6
20190325224205 34 11 0.0 0.0 0.00 0.05 0.05 85 1023.6
20190325223705 34 11 0.0 0.0 0.00 0.05 0.05 85 1023.5
20190325223205 34 11 0.0 0.0 0.00 0.05 0.05 85 1023.4
20190325222705 34 11 0.0 0.0 0.00 0.05 0.05 85 1023.3
20190325222205 34 11 0.0 0.0 0.00 0.05 0.05 85 1023.3
20190325221705 34 11 0.0 0.0 0.00 0.05 0.05 85 1023.3
20190325221206 34 11 0.0 0.0 0.00 0.05 0.05 85 1023.3
20190325220705 34 12 0.0 0.0 0.00 0.05 0.05 85 1023.3
20190325220205 34 11 0.0 0.0 0.00 0.05 0.05 85 1023.2
20190325215705 34 11 0.0 0.0 0.00 0.05 0.05 85 1023.2
20190325215205 34 11 0.0 0.0 0.00 0.05 0.05 85 1023.3
20190325214705 34 11 0.0 0.0 0.00 0.05 0.05 85 1023.2
20190325214205 34 12 0.0 0.0 0.00 0.05 0.05 85 1023.2
20190325213705 34 13 0.0 0.0 0.00 0.05 0.05 85 1023.1
20190325213205 34 12 0.0 0.0 0.00 0.05 0.05 85 1023.2
20190325212705 33 11 0.0 0.0 0.00 0.05 0.05 85 1023.2
20190325212205 33 11 0.0 0.0 0.00 0.05 0.05 85 1023.2
20190325211705 33 11 0.0 0.0 0.00 0.05 0.05 85 1023.2
20190325211205 33 11 0.0 0.0 0.00 0.05 0.05 85 1023.2
20190325210705 33 13 0.0 0.0 0.00 0.05 0.05 85 1023.2
20190325210205 33 11 0.0 0.0 0.00 0.05 0.05 85 1023.1
20190325205705 33 12 0.0 0.0 0.00 0.05 0.05 85 1022.9
20190325205205 32 11 0.0 0.0 0.00 0.05 0.05 85 1022.9
20190325204705 32 11 0.0 0.0 0.00 0.05 0.05 85 1022.8
20190325204205 32 11 0.0 0.0 0.00 0.05 0.05 85 1022.8
20190325203705 32 11 0.0 0.0 0.00 0.05 0.05 85 1022.8
20190325203205 33 12 0.0 0.0 0.00 0.05 0.05 85 1022.7
20190325202705 33 11 0.0 0.0 0.00 0.05 0.05 85 1022.7
20190325202205 33 12 0.0 0.0 0.00 0.05 0.05 85 1022.6
20190325201705 33 11 0.0 0.0 0.00 0.05 0.05 85 1022.5
20190325201205 33 11 0.0 2.0 0.00 0.05 0.05 85 1022.6
20190325200705 33 11 0.0 2.0 0.00 0.05 0.05 85 1022.5
20190325200206 33 11 0.0 2.0 0.00 0.05 0.05 85 1022.4
20190325195705 33 11 0.0 2.0 0.00 0.05 0.05 85 1022.2
20190325195205 33 11 0.0 0.0 0.00 0.05 0.05 85 1022.1
20190325194705 33 12 0.0 0.0 0.00 0.05 0.05 85 1022.1
20190325194205 33 11 0.0 0.0 0.00 0.05 0.05 85 1022.1
20190325193705 33 11 0.0 0.0 0.00 0.05 0.05 85 1022.1
20190325193206 33 12 0.0 0.0 0.00 0.05 0.05 85 1022.1
20190325192705 34 11 0.0 0.0 0.00 0.05 0.05 85 1022.2
20190325192205 34 10 0.0 0.0 0.00 0.05 0.05 84 1022.1
20190325191705 34 11 0.0 0.0 0.00 0.05 0.05 84 1022.1
20190325191205 34 11 0.0 0.0 0.00 0.05 0.05 84 1022.1
20190325190705 34 11 0.0 0.0 0.00 0.05 0.05 84 1021.9
20190325190204 34 13 0.0 1.0 0.00 0.05 0.05 84 1021.8
20190325185705 35 13 0.0 1.0 0.00 0.05 0.05 84 1021.8
20190325185205 35 11 0.0 1.0 0.00 0.05 0.05 84 1021.8
20190325184705 35 11 0.0 1.0 0.00 0.05 0.05 84 1021.7
20190325184205 35 13 0.0 1.0 0.00 0.05 0.05 84 1021.8
20190325183705 35 11 0.0 2.0 0.00 0.05 0.05 84 1021.7
20190325183205 35 12 0.0 2.0 0.01 0.05 0.05 83 1021.6
20190325182704 35 11 0.0 2.0 0.01 0.05 0.05 83 1021.6
20190325182205 35 12 0.0 1.0 0.01 0.05 0.05 83 1021.6
20190325181704 35 11 0.0 3.0 0.01 0.05 0.05 83 1021.4
20190325181204 36 11 0.0 3.0 0.01 0.05 0.05 83 1021.3
20190325180705 36 13 0.0 8.0 0.01 0.05 0.05 83 1021.3
20190325180205 36 13 1.0 8.0 0.01 0.05 0.05 82 1021.3
20190325175705 37 11 2.0 8.0 0.01 0.05 0.05 82 1021.3
20190325175205 37 11 2.0 11.0 0.01 0.05 0.05 82 1021.2
20190325174704 37 12 2.0 13.0 0.01 0.05 0.05 82 1021.1
20190325174205 37 12 4.0 13.0 0.01 0.05 0.05 82 1021.2
20190325173705 38 13 7.0 13.0 0.01 0.05 0.05 81 1021.2
20190325173205 38 13 5.0 10.0 0.00 0.04 0.04 81 1021.2
20190325172705 38 12 3.0 10.0 0.00 0.04 0.04 80 1021.0
20190325172205 38 11 2.0 11.0 0.00 0.04 0.04 80 1020.6
20190325171705 38 11 3.0 12.0 0.00 0.04 0.04 80 1020.4
20190325171205 39 12 4.0 12.0 0.00 0.04 0.04 79 1020.3
20190325170704 39 11 5.0 12.0 0.00 0.04 0.04 80 1020.2
20190325170205 39 13 5.0 12.0 0.00 0.04 0.04 79 1020.2
20190325165704 39 13 6.0 13.0 0.00 0.04 0.04 79 1020.1
20190325165205 40 15 6.0 13.0 0.00 0.04 0.04 78 1020.2
20190325164705 40 11 6.0 12.0 0.01 0.04 0.04 78 1020.2
20190325164205 40 11 6.0 12.0 0.01 0.04 0.04 78 1020.1
20190325163707 40 13 5.0 12.0 0.01 0.04 0.04 78 1020.0
20190325163206 39 14 4.0 12.0 0.01 0.04 0.04 77 1020.0
20190325162704 39 13 4.0 10.0 0.01 0.04 0.04 77 1019.9
20190325162205 40 16 4.0 10.0 0.02 0.04 0.04 78 1020.0
20190325161705 40 12 4.0 12.0 0.02 0.04 0.04 78 1019.9
20190325161205 40 11 5.0 15.0 0.02 0.04 0.04 78 1019.8
20190325160705 40 11 6.0 17.0 0.02 0.04 0.04 78 1019.9
20190325160205 39 13 8.0 19.0 0.02 0.04 0.04 78 1019.8
20190325155705 39 13 9.0 19.0 0.02 0.04 0.04 78 1019.9
20190325155205 39 14 5.0 19.0 0.02 0.04 0.03 79 1019.9
20190325154704 39 13 1.0 10.0 0.01 0.03 0.03 80 1019.8
20190325154205 38 13 2.0 13.0 0.01 0.03 0.03 80 1019.5
20190325153704 38 15 3.0 21.0 0.02 0.03 0.03 79 1019.5
20190325153205 38 13 7.0 22.0 0.02 0.03 0.03 77 1019.4
20190325152705 39 12 11.0 22.0 0.01 0.02 0.02 75 1019.7
20190325152205 41 13 11.0 22.0 0.01 0.02 0.02 70 1019.7
20190325151705 43 12 5.0 21.0 0.01 0.02 0.02 67 1019.6
20190325151205 44 15 1.0 8.0 0.01 0.02 0.02 68 1019.0
20190325150705 44 12 2.0 10.0 0.02 0.02 0.02 66 1018.8
20190325150205 45 11 3.0 10.0 0.02 0.02 0.02 65 1018.9
20190325145704 44 11 2.0 10.0 0.02 0.02 0.02 63 1018.9
20190325145206 44 13 1.0 8.0 0.02 0.02 0.02 67 1018.9
20190325144705 44 12 1.0 13.0 0.02 0.02 0.02 67 1018.8
20190325144205 45 13 3.0 13.0 0.02 0.02 0.02 67 1019.0
20190325143704 45 11 4.0 13.0 0.02 0.02 0.02 66 1019.0
20190325143206 45 13 4.0 10.0 0.02 0.02 0.02 69 1019.0
20190325142705 44 13 5.0 10.0 0.02 0.02 0.02 71 1019.1
20190325142205 44 16 4.0 10.0 0.02 0.02 0.02 73 1019.1
20190325141705 42 12 2.0 10.0 0.02 0.02 0.02 78 1019.1
20190325141205 41 12 2.0 10.0 0.01 0.01 0.01 81 1019.2
20190325140704 40 13 3.0 15.0 0.01 0.01 0.01 80 1019.3
20190325140206 39 12 4.0 20.0 0.01 0.01 0.01 79 1019.5
20190325135705 40 13 7.0 23.0 0.00 0.00 0.00 78 1019.6
20190325135205 40 12 9.0 23.0 0.00 0.00 0.00 76 1019.6
20190325134705 41 12 10.0 23.0 0.00 0.00 0.00 73 1019.5
20190325134205 42 16 7.0 23.0 0.00 0.00 0.00 70 1019.2
20190325133704 44 11 5.0 17.0 0.00 0.00 0.00 66 1019.1
20190325133205 45 11 6.0 15.0 0.00 0.00 0.00 65 1018.9
20190325132704 46 12 7.0 15.0 0.00 0.00 0.00 62 1018.8
20190325132204 46 13 7.0 14.0 0.00 0.00 0.00 64 1018.7
20190325131705 45 12 6.0 17.0 0.00 0.00 0.00 65 1018.8
20190325131204 44 11 5.0 17.0 0.00 0.00 0.00 65 1018.7
20190325130704 44 9 5.0 17.0 0.00 0.00 0.00 67 1018.8
20190325130204 43 12 4.0 14.0 0.00 0.00 0.00 68 1018.8
20190325125704 43 11 5.0 14.0 0.00 0.00 0.00 68 1018.8
20190325125223 43 13 6.0 14.0 0.00 0.00 0.00 68 1018.8
20190325124706 42 13 6.0 13.0 0.00 0.00 0.00 68 1018.9
20190325124205 42 12 6.0 16.0 0.00 0.00 0.00 68 1018.9
20190325123705 42 12 7.0 16.0 0.00 0.00 0.00 68 1019.0
20190325123206 42 12 8.0 16.0 0.00 0.00 0.00 68 1019.0
20190325122705 42 12 7.0 17.0 0.00 0.00 0.00 69 1019.0
20190325122205 42 11 6.0 17.0 0.00 0.00 0.00 69 1019.1
20190325121705 42 16 6.0 19.0 0.00 0.00 0.00 70 1019.2
20190325121205 43 12 8.0 19.0 0.00 0.00 0.00 68 1019.2
20190325120705 44 0 9.0 19.0 0.00 0.00 0.00 65 1019.2
20190325120204 46 13 6.0 15.0 0.00 0.00 0.00 58 1019.1
20190325115705 46 12 5.0 14.0 0.00 0.00 0.00 55 1018.9
20190325115205 47 11 5.0 16.0 0.00 0.00 0.00 54 1018.8
20190325114706 47 15 5.0 16.0 0.00 0.00 0.00 55 1018.9
20190325114205 46 11 5.0 16.0 0.00 0.00 0.00 55 1018.9
20190325113705 46 13 4.0 14.0 0.00 0.00 0.00 55 1018.9
20190325113205 46 13 5.0 14.0 0.00 0.00 0.00 56 1018.9
20190325112705 45 14 5.0 14.0 0.00 0.00 0.00 56 1019.0
20190325112205 45 13 6.0 15.0 0.00 0.00 0.00 55 1019.0
20190325111705 45 13 5.0 16.0 0.00 0.00 0.00 55 1019.1
20190325111205 45 13 6.0 16.0 0.00 0.00 0.00 55 1019.2
20190325110705 45 12 6.0 15.0 0.00 0.00 0.00 55 1019.1
20190325110205 45 13 5.0 15.0 0.00 0.00 0.00 55 1019.1
20190325105705 45 13 6.0 20.0 0.00 0.00 0.00 54 1019.2
20190325105205 46 15 8.0 20.0 0.00 0.00 0.00 53 1019.2
20190325104705 46 13 8.0 18.0 0.00 0.00 0.00 52 1019.2
20190325104205 46 13 7.0 18.0 0.00 0.00 0.00 52 1019.2
20190325103705 47 0 8.0 18.0 0.00 0.00 0.00 53 1019.1
20190325103206 46 13 8.0 16.0 0.00 0.00 0.00 52 1019.2
20190325102705 46 13 6.0 16.0 0.00 0.00 0.00 54 1019.2
20190325102205 46 12 5.0 15.0 0.00 0.00 0.00 52 1019.3
20190325101704 47 13 6.0 15.0 0.00 0.00 0.00 51 1019.4
20190325101205 47 13 7.0 19.0 0.00 0.00 0.00 52 1019.3
20190325100705 47 12 8.0 19.0 0.00 0.00 0.00 53 1019.3
20190325100204 47 12 8.0 19.0 0.00 0.00 0.00 51 1019.3
20190325095704 47 15 7.0 18.0 0.00 0.00 0.00 51 1019.3
20190325095205 47 13 8.0 18.0 0.00 0.00 0.00 51 1019.3
20190325094705 47 14 8.0 16.0 0.00 0.00 0.00 53 1019.4
20190325094205 47 11 7.0 18.0 0.00 0.00 0.00 53 1019.5
20190325093705 46 11 7.0 18.0 0.00 0.00 0.00 56 1019.5
20190325093205 46 12 7.0 16.0 0.00 0.00 0.00 55 1019.6
20190325092705 46 12 7.0 16.0 0.00 0.00 0.00 57 1019.6
20190325092205 45 12 7.0 16.0 0.00 0.00 0.00 58 1019.7
20190325091705 45 15 8.0 16.0 0.00 0.00 0.00 59 1019.8
20190325091205 44 11 9.0 17.0 0.00 0.00 0.00 59 1019.8
20190325090705 44 15 9.0 17.0 0.00 0.00 0.00 59 1019.8
20190325090205 44 12 9.0 18.0 0.00 0.00 0.00 59 1019.7
20190325085705 44 14 9.0 18.0 0.00 0.00 0.00 59 1019.7
20190325085205 44 12 8.0 21.0 0.00 0.00 0.00 59 1019.8
20190325084705 44 13 8.0 21.0 0.00 0.00 0.00 59 1019.8
20190325084205 44 13 9.0 21.0 0.00 0.00 0.00 59 1019.7
20190325083704 44 12 8.0 20.0 0.00 0.00 0.00 59 1019.6
20190325083205 44 11 9.0 20.0 0.00 0.00 0.00 59 1019.5
20190325082704 44 11 11.0 21.0 0.00 0.00 0.00 59 1019.6
20190325082205 44 13 12.0 21.0 0.00 0.00 0.00 58 1019.6
20190325081704 44 12 11.0 21.0 0.00 0.00 0.00 59 1019.5
20190325081206 44 13 10.0 21.0 0.00 0.00 0.00 60 1019.5
20190325080704 44 13 11.0 23.0 0.00 0.00 0.00 61 1019.5
20190325080205 43 13 11.0 23.0 0.00 0.00 0.00 62 1019.5
20190325075705 43 11 10.0 23.0 0.00 0.00 0.00 62 1019.5
20190325075205 43 11 9.0 17.0 0.00 0.00 0.00 62 1019.5
20190325074705 43 15 9.0 17.0 0.00 0.00 0.00 62 1019.5
20190325074205 43 13 9.0 17.0 0.00 0.00 0.00 62 1019.5
20190325073705 43 12 8.0 17.0 0.00 0.00 0.00 63 1019.4
20190325073205 43 15 8.0 17.0 0.00 0.00 0.00 62 1019.4
20190325072704 43 13 7.0 14.0 0.00 0.00 0.00 63 1019.4
20190325072205 43 11 6.0 14.0 0.00 0.00 0.00 64 1019.4
20190325071705 43 11 6.0 14.0 0.00 0.00 0.00 64 1019.4
20190325071205 42 11 6.0 12.0 0.00 0.00 0.00 65 1019.4
20190325070704 42 13 5.0 11.0 0.00 0.00 0.00 65 1019.3
20190325070205 42 13 5.0 9.0 0.00 0.00 0.00 66 1019.1
20190325065705 42 13 5.0 9.0 0.00 0.00 0.00 67 1019.3
20190325065205 42 12 3.0 8.0 0.00 0.00 0.00 67 1019.3
20190325064704 41 11 2.0 8.0 0.00 0.00 0.00 67 1019.3
20190325064205 41 14 3.0 10.0 0.00 0.00 0.00 67 1019.2